Flag for Australia Weather past 2 weeks in Darwin, Northern Territory, Australia

Now
90 °F

Scattered clouds.


Feels Like: 96 °F
Forecast: 78 / 91 °F
Wind: 7 mph from East

Location: Darwin Airport

Current Time: Apr 18, 2015 at 2:26:08 PM

Latest Report: Apr 18, 2015 at 2:00 PM


Visibility: N/A

Pressure: 29.80 "Hg

Humidity: 55%

Dew point: 72 °F

Location of DarwinLocation

Historic Weather in Darwin — Graph

°F

Darwin temperature yesterday

Maximum temperature yesterday: 93 °F (at 2:00 PM)
Minimum temperature yesterday: 77 °F (at 6:00 AM)
Average temperature yesterday: 85 °F

Past Weeks' High & Low Weather Summary

 TemperatureHumidityPressure
High93 °F (Apr 3, 2:00 PM)100% (Apr 12, 6:30 AM)29.98 "Hg (Apr 12, 6:30 AM)
Low73 °F (Apr 11, 5:00 AM)28% (Apr 10, 2:30 PM)29.71 "Hg (Apr 3, 4:00 PM)
Average84 °F73%29.84 "Hg
* Reported Apr 3 1:30 PM — Apr 18 1:30 PM, Darwin, Weather by CustomWeather, © 2015

Note: Actual official high and low records may vary slightly from our data, if they occured in-between our weather recording intervals... More about our weather records

Advertising

Darwin weather history for previous 24 hours

 ConditionsComfort  
Time TempWeatherWind HumidityBarometerVisibility
1:30 PM
Sat, Apr 18
90 °FScattered clouds.8 mph59%29.83 "HgN/A
12:30 PM90 °FScattered clouds.10 mph55%29.86 "HgN/A
12:00 PM90 °FBroken clouds.10 mph59%29.86 "HgN/A
11:30 AM90 °FBroken clouds.12 mph59%29.89 "HgN/A
11:00 AM88 °FBroken clouds.10 mph62%29.89 "HgN/A
10:30 AM88 °FBroken clouds.9 mph62%29.89 "HgN/A
10:00 AM86 °FBroken clouds.8 mph70%29.92 "HgN/A
9:30 AM86 °FPartly sunny.9 mph70%29.89 "HgN/A
9:00 AM84 °FPartly sunny.10 mph74%29.89 "HgN/A
8:30 AM82 °FPartly sunny.8 mph79%29.89 "HgN/A
8:00 AM82 °FPartly sunny.6 mph79%29.89 "HgN/A
7:30 AM81 °FPartly sunny.7 mph84%29.86 "HgN/A
7:00 AM79 °FPassing clouds.7 mph89%29.86 "HgN/A
6:30 AM79 °FPassing clouds.7 mph89%29.86 "HgN/A
6:00 AM79 °FPassing clouds.5 mph94%29.83 "HgN/A
5:30 AM79 °FPassing clouds.No wind94%29.83 "HgN/A
5:00 AM81 °FPartly cloudy.No wind89%29.83 "HgN/A
4:30 AM81 °FClear.No wind89%29.83 "Hg10 mi
4:00 AM81 °FPassing clouds.No wind89%29.83 "HgN/A
3:30 AM81 °FPassing clouds.3 mph89%29.83 "HgN/A
3:00 AM81 °FScattered showers. Partly cloudy.5 mph89%29.83 "HgN/A
2:30 AM81 °FScattered showers. Passing clouds.No wind89%29.83 "HgN/A
2:00 AM81 °FPassing clouds.6 mph89%29.83 "HgN/A
1:30 AM81 °FPassing clouds.5 mph89%29.86 "HgN/A
1:00 AM82 °FPassing clouds.5 mph84%29.86 "HgN/A
12:30 AM81 °FPartly cloudy.6 mph89%29.86 "HgN/A
12:00 AM82 °FClear.6 mph84%29.86 "Hg10 mi
11:30 PM
Fri, Apr 17
82 °FClear.8 mph79%29.86 "Hg10 mi
11:00 PM82 °FPassing clouds.6 mph79%29.86 "HgN/A
10:30 PM82 °FClear.7 mph74%29.86 "Hg10 mi
10:00 PM82 °FClear.8 mph74%29.86 "Hg10 mi
9:30 PM82 °FClear.8 mph74%29.86 "Hg10 mi
9:00 PM82 °FClear.9 mph70%29.86 "Hg10 mi
8:30 PM84 °FClear.10 mph66%29.83 "Hg10 mi
8:00 PM84 °FClear.10 mph70%29.83 "Hg10 mi
7:30 PM84 °FPassing clouds.10 mph70%29.83 "HgN/A
7:00 PM84 °FScattered clouds.12 mph70%29.80 "HgN/A
6:30 PM86 °FScattered clouds.15 mph66%29.80 "HgN/A
6:00 PM86 °FPassing clouds.15 mph66%29.80 "HgN/A
5:30 PM88 °FPassing clouds.17 mph62%29.80 "HgN/A
5:00 PM90 °FPassing clouds.17 mph59%29.77 "HgN/A
4:30 PM90 °FSunny.15 mph55%29.77 "Hg10 mi
4:00 PM93 °FSunny.13 mph44%29.77 "Hg10 mi
3:30 PM93 °FSunny.13 mph44%29.77 "Hg10 mi
3:00 PM93 °FSunny.13 mph44%29.80 "Hg10 mi
2:30 PM91 °FPassing clouds.10 mph44%29.80 "HgN/A
2:00 PM93 °FPassing clouds.13 mph44%29.83 "HgN/A
Weather by CustomWeather, © 2015

See weather overviewHow to use our weather pages